Stations météo

réclame
Mon MeteoGroup
Catania/Sigonella, Italie (16459): Température de l'air & dewpoint: 16.10.2017 15:00:00 - 22.10.2017 15:00:00 (CEST)Catania/Sigonella, Italie (16459): Vitesse du vent: 16.10.2017 15:00:00 - 22.10.2017 15:00:00 (CEST)Catania/Sigonella, Italie (16459): Direction du vent: 16.10.2017 15:00:00 - 22.10.2017 15:00:00 (CEST)Catania/Sigonella, Italie (16459): reduced air pressure: 16.10.2017 15:00:00 - 22.10.2017 15:00:00 (CEST)Catania/Sigonella, Italie (16459): visibility: 16.10.2017 15:00:00 - 22.10.2017 15:00:00 (CEST)
Date & Time tt [°C] td [°C] ff [km/h] ff [knt] dd ppp [hPa] vv [km]
22.10.2017 15:00:00 27,0 13,0 24 13 ENE - 10
22.10.2017 14:00:00 28,2 13,7 22 12 E 1018,4 10
22.10.2017 13:00:00 27,0 13,0 4 2 E - 10
22.10.2017 12:00:00 25,0 16,0 2 1 SSW - 8
22.10.2017 11:00:00 23,2 14,8 4 2 W 1020,2 8
22.10.2017 10:00:00 20,0 18,0 4 2 W - 7
22.10.2017 09:00:00 16,0 16,0 8 4 W - 6
22.10.2017 08:00:00 13,6 13,6 5 3 WNW 1020,1 6
22.10.2017 07:00:00 14,0 14,0 4 2 NNW - 5
22.10.2017 06:00:00 15,0 15,0 8 4 W - 6
22.10.2017 05:00:00 15,0 15,0 9 5 SW 1020,0 2,5
22.10.2017 04:00:00 15,0 15,0 4 2 W - 3,0
22.10.2017 03:00:00 16,0 16,0 8 4 SW - 4,0
22.10.2017 02:00:00 17,0 17,0 4 2 SSW 1020,3 2,5
22.10.2017 01:00:00 17,0 17,0 9 5 W - 6
22.10.2017 00:00:00 19,0 19,0 9 5 W - 5
21.10.2017 23:00:00 20,4 20,4 8 4 WNW 1020,5 5
21.10.2017 22:00:00 20,0 20,0 8 4 W - 10
21.10.2017 21:00:00 21,0 21,0 5 3 NE - 10
21.10.2017 20:00:00 22,0 22,0 8 4 E 1020,4 10
21.10.2017 19:00:00 22,0 22,0 9 5 ENE - 10
21.10.2017 18:00:00 23,0 23,0 18 10 E - 10
21.10.2017 17:00:00 25,2 22,1 22 12 ENE 1019,4 10
21.10.2017 16:00:00 26,0 21,0 16 9 E - 10
21.10.2017 15:00:00 27,0 20,0 13 7 E - 10
21.10.2017 14:00:00 26,6 20,2 9 5 E 1020,3 10
21.10.2017 13:00:00 26,0 20,0 5 3 SE - 10
21.10.2017 12:00:00 26,0 19,0 2 1 S - 10
21.10.2017 11:00:00 24,8 18,5 4 2 W 1021,3 10
21.10.2017 10:00:00 22,0 17,0 8 4 NNW - 10
21.10.2017 09:00:00 18,0 15,0 8 4 WNW - 10
21.10.2017 08:00:00 17,6 13,3 8 4 WNW 1020,2 8
21.10.2017 07:00:00 16,0 16,0 8 4 W - 8
21.10.2017 06:00:00 18,0 16,0 8 4 WSW - 8
21.10.2017 05:00:00 18,0 17,0 8 4 W 1019,7 8
21.10.2017 04:00:00 18,0 17,0 11 6 WSW - 8
21.10.2017 03:00:00 18,0 16,0 9 5 NNW - 7
21.10.2017 02:00:00 17,4 17,4 8 4 WSW 1020,2 7
21.10.2017 01:00:00 18,0 18,0 5 3 W - 7
21.10.2017 00:00:00 20,0 20,0 5 3 NW - 8
20.10.2017 23:00:00 19,6 19,6 5 3 WSW 1019,6 8
20.10.2017 22:00:00 21,0 21,0 11 6 ENE - 10
20.10.2017 21:00:00 21,0 21,0 15 8 ENE - 10
20.10.2017 20:00:00 21,6 21,6 13 7 ENE 1018,7 10
20.10.2017 19:00:00 22,0 22,0 16 9 ENE - 8
20.10.2017 18:00:00 23,0 23,0 18 10 ENE - 8
20.10.2017 17:00:00 23,8 22,1 21 11 E 1018,1 10
20.10.2017 16:00:00 25,0 21,0 18 10 ENE - 10
20.10.2017 15:00:00 26,0 18,0 18 10 E - 10
20.10.2017 14:00:00 27,0 14,1 11 6 E 1018,4 10
20.10.2017 13:00:00 26,0 14,0 4 2 E - 10
20.10.2017 12:00:00 25,0 16,0 4 2 E - 10
20.10.2017 11:00:00 23,0 15,3 5 3 W 1019,1 10
20.10.2017 10:00:00 20,0 16,0 9 5 W - 8
20.10.2017 09:00:00 17,0 16,0 9 5 WSW - 7
20.10.2017 08:00:00 14,2 14,2 5 3 WSW 1018,5 7
20.10.2017 07:00:00 15,0 15,0 9 5 NW - 7
20.10.2017 06:00:00 15,0 15,0 8 4 W - 10
20.10.2017 05:00:00 15,0 15,0 9 5 WNW 1018,3 10
20.10.2017 04:00:00 14,0 14,0 8 4 W - 10
20.10.2017 03:00:00 15,0 15,0 9 5 WSW - 10
20.10.2017 02:00:00 15,8 15,8 9 5 W 1018,5 10
20.10.2017 01:00:00 16,0 16,0 9 5 WSW - 10
20.10.2017 00:00:00 16,0 16,0 5 3 WSW - 10
19.10.2017 23:00:00 18,2 18,2 5 3 WSW 1018,1 10
19.10.2017 22:00:00 19,0 19,0 5 3 ENE - 10
19.10.2017 21:00:00 20,0 19,0 8 4 N - 10
19.10.2017 20:00:00 20,6 18,4 5 3 NE 1017,4 10
19.10.2017 19:00:00 26,0 23,0 5 3 S - 10
19.10.2017 18:00:00 22,0 18,0 13 7 SSW - 10
19.10.2017 17:00:00 25,0 15,4 22 12 WSW 1016,9 10
19.10.2017 16:00:00 26,0 12,0 13 7 SW - 10
19.10.2017 15:00:00 26,0 13,0 16 9 S - 10
19.10.2017 14:00:00 28,6 10,3 15 8 W 1017,6 10
19.10.2017 13:00:00 27,0 11,0 8 4 SSE - 10
19.10.2017 12:00:00 25,0 12,0 8 4 S - 10
19.10.2017 11:00:00 23,6 13,2 5 3 W 1019,1 10
19.10.2017 10:00:00 20,0 13,0 8 4 W - 10
19.10.2017 09:00:00 17,0 16,0 8 4 SW - 10
19.10.2017 08:00:00 13,8 13,8 9 5 W 1018,9 8
19.10.2017 07:00:00 13,0 13,0 11 6 WSW - 7
19.10.2017 06:00:00 13,0 13,0 9 5 SW - 7
19.10.2017 05:00:00 15,0 15,0 8 4 WSW 1019,0 7
19.10.2017 04:00:00 15,0 15,0 9 5 W - 7
19.10.2017 03:00:00 15,0 15,0 8 4 WNW - 7
19.10.2017 02:00:00 15,8 15,8 11 6 W 1019,4 7
19.10.2017 01:00:00 17,0 17,0 15 8 W - 7
19.10.2017 00:00:00 19,0 19,0 9 5 W - 7
18.10.2017 23:00:00 18,6 18,6 8 4 NW 1019,3 7
18.10.2017 22:00:00 19,0 19,0 9 5 W - 10
18.10.2017 21:00:00 20,0 20,0 2 1 NNW - 10
18.10.2017 20:00:00 21,2 21,2 9 5 ENE 1018,5 10
18.10.2017 19:00:00 22,0 20,0 13 7 ENE - 10
18.10.2017 18:00:00 24,0 21,0 18 10 ENE - 10
18.10.2017 17:00:00 25,6 18,8 22 12 ENE 1018,0 10
18.10.2017 16:00:00 27,0 17,0 18 10 E - 10
18.10.2017 15:00:00 27,0 14,0 21 11 E - 10
18.10.2017 14:00:00 27,8 10,5 15 8 E 1019,3 10
18.10.2017 13:00:00 27,0 11,0 4 2 E - 10
18.10.2017 12:00:00 25,0 12,0 4 2 W - 10
18.10.2017 11:00:00 22,6 15,0 4 2 NW 1021,2 10
18.10.2017 10:00:00 20,0 15,0 8 4 W - 10
18.10.2017 09:00:00 15,0 15,0 9 5 W - 7
18.10.2017 08:00:00 13,0 13,0 9 5 WSW 1020,7 8
18.10.2017 07:00:00 14,0 14,0 8 4 WSW - 8
18.10.2017 06:00:00 14,0 14,0 9 5 WSW - 10
18.10.2017 05:00:00 15,8 15,8 8 4 W 1021,3 10
18.10.2017 04:00:00 17,0 16,0 8 4 WNW - 10
18.10.2017 03:00:00 17,0 16,0 5 3 WNW - 10
18.10.2017 02:00:00 17,8 17,8 11 6 NW 1022,5 10
18.10.2017 01:00:00 18,0 18,0 13 7 WNW - 10
18.10.2017 00:00:00 19,0 19,0 13 7 W - 10
17.10.2017 23:00:00 20,6 20,4 13 7 W 1023,3 10
17.10.2017 22:00:00 21,0 20,0 8 4 NW - 10
17.10.2017 21:00:00 21,0 21,0 8 4 NW - 10
17.10.2017 20:00:00 20,4 20,4 8 4 N 1023,2 10
17.10.2017 19:00:00 23,0 20,0 15 8 ENE - 10
17.10.2017 18:00:00 23,0 18,0 16 9 ENE - 10
17.10.2017 17:00:00 24,8 13,7 22 12 E 1023,2 10
17.10.2017 16:00:00 26,0 16,0 24 13 E - 10
17.10.2017 15:00:00 27,0 18,0 22 12 ENE - 10
17.10.2017 14:00:00 26,4 13,9 11 6 E 1024,1 10
17.10.2017 13:00:00 26,0 15,0 5 3 E - 10
17.10.2017 12:00:00 24,0 17,0 2 1 NNE - 10
17.10.2017 11:00:00 23,2 16,7 5 3 WSW 1026,7 10
17.10.2017 10:00:00 20,0 14,0 8 4 WNW - 10
17.10.2017 09:00:00 17,0 12,0 5 3 W - 8
17.10.2017 08:00:00 13,8 13,0 8 4 W 1025,8 7
17.10.2017 07:00:00 13,0 13,0 9 5 W - 8
17.10.2017 06:00:00 12,0 12,0 8 4 WSW - 10
17.10.2017 05:00:00 14,0 13,2 9 5 W 1025,5 10
17.10.2017 04:00:00 14,0 13,0 9 5 WSW - 10
17.10.2017 03:00:00 15,0 13,0 9 5 WNW - 10
17.10.2017 02:00:00 15,0 15,0 9 5 W 1026,4 10
17.10.2017 01:00:00 16,0 16,0 9 5 W - 10
17.10.2017 00:00:00 17,0 15,0 8 4 WNW - 10
16.10.2017 23:00:00 16,4 16,4 11 6 W 1026,7 10
16.10.2017 22:00:00 18,0 18,0 8 4 W - 10
16.10.2017 21:00:00 19,0 19,0 4 2 NW - 10
16.10.2017 20:00:00 20,2 18,5 11 6 NNE 1026,3 10
16.10.2017 19:00:00 21,0 18,0 13 7 ENE - 10
16.10.2017 18:00:00 23,0 13,0 16 9 E - 10
16.10.2017 17:00:00 25,4 9,2 18 10 E 1025,6 10
16.10.2017 16:00:00 26,0 9,0 21 11 E - 10
16.10.2017 15:00:00 27,0 9,0 18 10 E - 10

tt = Température de l'air
td = dewpoint
ff = Vitesse du vent
dd = Direction du vent
ppp = reduced air pressure
vv = visibility

stations d'obs. à proximité